Wind_Speed
4 3 9 12 17 23 21 13 6 12 14 8 12 8 3 3 8 2 3 5 3 3 4 2 4 8 8 5 5 4 4 2 2 8 5 3 3 5 3 0 2 0 1 5
6 4 10 14 20 25 18 12 6 16 16 5 5 4 6 5 8 7 4 2 1 2 5 3 6 8 5 5 7 4 5 1 2 8 5 4 2 4 1 6 2 4 2 3
7 5 9 16 21 22 13 8 3 7 10 11 11 7 7 5 2 4 2 5 4 5 5 4 6 9 4 5 7 2 4 2 2 2 5 6 7 8 8 8 4 5 7 14
6 6 8 14 18 18 10 5 6 10 6 8 6 11 10 11 6 5 7 5 5 6 2 6 5 11 8 4 2 1 3 1 5 7 8 7 9 11 11 12 11 8 10 13
7 6 6 9 14 15 11 4 2 6 4 14 9 5 7 11 8 9 8 5 7 7 6 3 6 6 4 3 3 2 4 2 3 2 3 9 12 14 14 15 14 9 12 13
6 6 6 7 10 13 6 4 3 4 1 5 6 6 9 10 10 2 7 7 8 11 13 14 13 12 10 7 4 4 2 1 2 2 9 9 2 3 3 5 7 9 5 9
7 6 6 6 7 8 4 6 4 4 1 5 9 10 9 10 10 6 10 9 10 11 16 15 14 14 10 7 6 4 5 2 2 2 5 2 4 13 11 9 7 7 9 6
8 6 6 6 5 5 5 7 5 3 2 9 8 10 9 13 8 12 15 11 13 14 6 3 2 2 4 3 5 4 4 3 2 0 3 9 10 5 5 5 10 11 5 8
10 7 6 6 6 5 5 6 7 3 8 3 9 11 15 8 8 8 6 8 8 5 3 2 3 3 2 6 6 7 4 5 1 2 2 3 1 7 6 9 8 8 9 11
11 9 7 6 7 7 6 5 7 5 4 4 5 8 10 12 10 5 10 7 4 1 2 2 2 3 2 5 5 4 3 2 4 4 4 6 9 4 4 3 2 8 4 10
12 11 9 8 7 7 7 5 4 6 4 4 4 7 12 8 12 5 12 5 2 3 3 3 3 2 4 1 4 6 7 6 4 4 4 6 2 1 2 7 14 5 4 6
13 11 10 9 9 8 5 1 3 5 5 7 11 11 11 9 5 10 17 4 9 8 3 2 1 2 2 2 3 7 4 6 4 9 5 10 4 7 11 11 9 3 8 7
13 12 11 10 9 9 9 6 6 4 5 4 5 4 10 11 11 12 7 6 7 9 5 7 3 3 4 4 4 3 4 10 3 4 8 12 10 13 6 3 1 5 5 8
13 12 11 11 10 9 9 6 8 6 4 4 4 6 7 12 11 11 8 8 11 11 8 5 3 3 12 5 6 4 6 5 6 7 14 15 4 5 6 3 7 7 5 7
13 11 11 11 10 9 9 8 8 10 3 4 1 5 10 11 10 7 9 11 13 10 5 3 4 5 2 4 1 4 9 9 7 8 8 3 2 3 4 6 5 5 4 6
12 11 10 10 10 9 6 2 6 10 8 2 2 3 2 9 10 9 9 11 11 10 7 5 5 8 7 2 3 10 17 12 8 12 1 3 3 5 3 2 1 1 2 7
12 10 9 10 11 12 7 4 5 11 10 3 1 3 3 9 7 8 8 10 8 8 5 6 4 4 9 3 5 10 12 12 11 1 4 3 4 3 5 3 1 3 5 10
14 11 9 8 11 12 8 6 2 9 7 5 2 2 2 10 5 3 5 5 5 4 4 4 4 5 6 4 11 14 17 18 8 6 3 5 2 6 3 2 2 6 9 12
18 13 10 8 7 7 12 9 3 9 6 3 5 6 4 9 5 4 4 4 1 2 3 5 4 3 6 8 11 13 17 9 10 7 6 7 5 3 1 2 5 8 11 14
20 16 8 6 7 10 10 7 3 4 6 6 6 7 3 8 6 3 5 3 2 2 2 3 2 5 18 17 10 7 11 10 8 10 11 7 4 2 3 5 7 9 12 19
24 12 8 8 21 14 9 6 5 6 3 7 9 15 6 7 4 3 6 3 3 3 3 4 3 3 9 22 16 8 9 8 8 9 9 6 3 2 5 7 10 16 17 18
13 8 10 10 5 3 4 4 3 4 5 6 8 6 8 7 5 5 6 3 2 5 9 2 3 3 6 15 13 9 10 12 11 9 7 3 1 4 9 15 18 19 19 21
12 3 3 2 1 2 2 4 2 2 3 5 5 4 6 5 4 5 2 6 5 2 3 3 1 9 10 13 14 12 13 14 12 6 2 2 7 13 17 20 19 18 20 24
3 2 3 2 2 2 2 2 3 3 1 10 14 6 4 4 3 4 4 1 2 3 3 3 4 9 11 13 13 12 9 9 5 2 7 12 18 22 21 19 18 20 24 24
3 3 2 2 2 2 3 4 4 5 7 6 7 6 4 2 3 0 3 4 3 2 1 2 12 12 11 12 11 11 8 4 5 8 15 21 22 21 21 19 20 23 23 24
2 2 2 3 2 3 4 6 8 5 8 6 5 2 1 2 2 2 1 2 0 2 3 8 9 9 6 7 7 5 5 9 12 18 21 19 18 19 20 22 24 23 21 20
2 2 4 4 4 3 2 4 4 4 4 2 2 2 4 1 0 1 2 2 1 5 7 8 9 8 5 2 4 10 13 15 19 20 19 20 20 21 23 24 21 16 18 20
Wind_Direction
156 146 169 172 170 164 164 181 219 174 176 188 219 232 133 136 170 203 62 14 138 136 133 95 79 104 55 52 339 58 36 83 292 70 77 25 8 28 16 9 353 179 284 278
157 137 159 166 165 166 178 199 141 163 170 208 227 123 124 180 169 180 169 110 20 68 127 105 110 110 70 33 33 33 351 82 266 144 156 155 321 56 69 101 90 249 241 269
162 138 155 166 170 172 194 218 123 156 200 268 192 183 169 141 24 117 133 115 156 134 141 94 135 120 102 62 72 15 301 89 47 341 331 337 303 288 270 255 185 260 272 292
171 151 146 173 182 194 217 255 174 172 186 245 232 183 180 164 167 191 175 172 180 150 131 133 138 119 135 134 141 149 360 86 13 330 318 309 301 293 286 273 264 250 266 267
178 168 147 155 184 194 207 305 153 178 153 202 220 134 207 189 178 169 181 193 188 154 142 199 164 147 171 126 174 81 35 105 12 258 2 349 306 293 289 280 270 284 315 302
180 176 163 149 161 179 219 247 170 174 307 196 207 163 228 202 120 286 191 170 123 74 72 70 65 62 58 81 134 118 55 33 39 274 348 312 319 256 313 345 329 315 287 280
187 178 173 167 164 173 152 181 162 101 184 208 195 208 212 157 166 173 120 133 107 112 112 89 73 66 58 90 69 81 128 56 74 301 312 8 40 318 291 314 280 291 307 28
195 187 178 172 176 183 203 166 135 125 154 209 201 202 180 123 128 128 90 66 126 143 155 120 101 53 41 51 51 90 127 139 89 301 303 297 299 53 29 1 307 307 7 32
197 198 188 179 177 177 175 171 163 143 124 236 199 182 142 148 131 101 106 110 131 161 80 98 150 174 184 154 135 44 64 97 246 122 233 252 6 55 37 318 276 51 23 5
199 201 197 193 185 181 181 152 150 121 98 119 218 161 167 154 167 140 147 156 141 188 93 105 185 184 285 175 177 186 99 164 200 193 246 278 272 349 331 246 26 350 11 344
199 202 202 201 197 189 179 177 154 138 113 141 81 144 186 167 186 141 149 129 150 84 92 154 195 148 221 174 190 164 168 164 198 196 227 256 343 18 253 345 328 336 331 324
202 203 203 204 202 197 174 123 158 155 150 167 171 166 171 179 138 155 165 183 155 169 123 163 142 182 2 26 218 206 211 189 188 187 211 220 313 232 266 272 266 314 300 311
204 208 206 204 205 200 194 184 168 128 118 113 129 170 189 186 156 158 146 202 188 174 138 146 164 178 172 181 230 284 257 265 212 209 252 273 293 304 131 163 255 325 293 285
202 207 209 207 207 206 201 177 188 148 155 131 179 209 202 201 193 191 170 199 178 176 159 123 152 172 200 197 257 256 229 269 274 282 283 285 294 83 120 351 310 282 274 276
201 205 209 210 207 205 207 215 207 199 180 167 134 181 235 208 188 185 182 185 182 159 138 126 203 209 274 119 84 238 239 259 248 259 276 263 126 140 289 286 287 277 273 313
200 202 208 208 202 193 172 187 247 217 184 178 133 206 209 205 194 188 186 187 190 194 174 194 237 211 203 153 239 244 244 261 278 310 165 146 169 295 274 237 22 315 310 300
203 202 204 204 197 181 170 183 219 206 190 172 104 197 184 182 182 186 207 208 218 226 228 197 212 233 206 150 223 242 249 250 252 170 164 220 249 224 174 164 219 274 297 314
201 205 210 215 201 200 206 214 246 183 176 195 147 151 211 175 177 155 173 175 198 232 253 135 200 232 234 249 242 251 251 253 192 164 209 239 230 178 177 193 289 313 312 323
197 199 205 217 212 201 209 214 219 205 198 219 164 159 198 167 145 152 150 167 162 251 234 191 220 166 218 227 246 256 258 176 175 192 225 181 174 166 209 288 304 312 319 322
195 192 192 203 184 191 207 225 232 222 221 218 180 184 167 159 156 115 124 167 240 231 221 183 237 249 246 243 261 257 175 167 182 196 175 176 160 228 290 305 309 310 303 308
188 187 199 182 157 162 175 182 189 199 246 211 187 184 149 156 137 150 188 171 175 237 176 212 234 252 232 233 216 170 160 178 179 164 160 141 155 274 307 303 295 299 307 310
183 159 142 153 182 179 178 179 177 198 217 160 148 129 145 136 139 132 173 167 150 237 143 199 250 235 106 147 149 157 150 139 130 131 131 129 301 310 296 304 307 306 305 308
132 122 103 61 14 184 214 194 221 211 161 148 141 86 118 126 141 107 150 186 210 120 185 234 298 109 129 139 146 144 143 145 136 127 127 261 302 308 313 311 307 302 303 311
84 78 94 344 132 54 32 320 339 10 267 152 135 104 127 121 106 135 177 136 166 209 223 206 157 126 122 129 145 150 147 176 184 261 304 309 313 314 311 307 305 304 308 312
78 57 70 69 92 63 26 48 77 84 108 101 88 78 106 108 120 165 123 177 214 227 165 73 91 125 146 139 148 164 180 215 277 299 311 313 310 308 306 306 305 308 310 310
74 88 122 107 82 25 35 53 64 84 73 62 54 72 81 74 66 174 186 196 214 90 70 103 126 120 127 139 161 201 240 275 291 303 308 305 306 306 305 305 306 306 303 304
87 101 145 149 121 133 105 79 70 62 58 49 6 32 52 159 81 67 33 27 75 142 141 135 144 143 142 185 278 292 292 287 291 300 304 305 304 301 300 303 312 311 310 307
Height
1482 1482 1483 1485 1487 1491 1497 1498 1499 1500 1504 1508 1504 1499 1496 1501 1505 1505 1503 1501 1501 1505 1510 1512 1515 1519 1523 1529 1527 1529 1532 1531 1539 1531 1532 1532 1531 1532 1534 1551 1551 1549 1554 1550
1481 1482 1483 1485 1488 1491 1495 1495 1497 1500 1503 1503 1501 1500 1501 1500 1504 1504 1506 1508 1508 1508 1511 1522 1518 1526 1533 1533 1532 1535 1534 1534 1541 1537 1537 1533 1533 1532 1537 1545 1554 1558 1562 1548
1482 1483 1483 1485 1488 1491 1493 1491 1495 1500 1502 1498 1497 1499 1503 1506 1505 1508 1507 1509 1511 1512 1516 1515 1522 1530 1534 1536 1537 1538 1537 1532 1538 1547 1539 1534 1537 1534 1533 1536 1552 1551 1550 1540
1481 1483 1484 1485 1488 1490 1493 1489 1490 1494 1498 1497 1494 1495 1496 1502 1508 1507 1509 1510 1509 1513 1519 1519 1523 1527 1535 1537 1539 1537 1536 1540 1539 1539 1537 1536 1536 1535 1533 1534 1534 1544 1538 1535
1481 1483 1484 1485 1488 1490 1492 1490 1490 1492 1490 1494 1494 1496 1496 1497 1500 1506 1507 1508 1509 1512 1521 1521 1524 1524 1528 1531 1537 1536 1539 1546 1549 1546 1535 1537 1539 1535 1533 1530 1528 1529 1531 1533
1481 1483 1484 1486 1487 1490 1491 1490 1491 1491 1495 1492 1495 1497 1497 1497 1502 1508 1505 1506 1511 1519 1523 1525 1528 1530 1532 1533 1535 1539 1542 1546 1551 1552 1549 1548 1549 1538 1528 1528 1527 1531 1537 1533
1481 1482 1484 1485 1487 1489 1490 1491 1493 1493 1497 1494 1494 1496 1496 1498 1506 1508 1507 1510 1517 1527 1528 1531 1534 1536 1537 1538 1540 1540 1548 1550 1559 1560 1557 1554 1532 1529 1527 1530 1528 1529 1528 1532
1480 1482 1484 1485 1486 1488 1489 1490 1492 1494 1501 1496 1494 1497 1498 1502 1507 1510 1515 1519 1522 1526 1528 1534 1541 1545 1549 1545 1542 1543 1543 1551 1565 1563 1555 1544 1534 1531 1535 1538 1538 1533 1532 1537
1479 1481 1483 1485 1486 1488 1489 1491 1492 1494 1496 1497 1496 1497 1501 1506 1509 1517 1523 1525 1526 1528 1533 1538 1550 1540 1531 1542 1546 1548 1548 1550 1554 1567 1564 1557 1533 1532 1536 1537 1540 1537 1540 1542
1479 1481 1483 1485 1487 1488 1490 1491 1493 1494 1496 1497 1498 1499 1503 1507 1512 1516 1522 1526 1528 1528 1537 1544 1539 1534 1528 1537 1545 1556 1559 1557 1560 1560 1562 1549 1534 1534 1537 1543 1544 1540 1542 1543
1477 1480 1483 1485 1487 1489 1490 1492 1493 1494 1496 1499 1500 1502 1503 1506 1509 1515 1519 1526 1528 1531 1541 1541 1537 1542 1534 1533 1527 1543 1550 1554 1560 1556 1558 1552 1534 1534 1542 1538 1538 1539 1540 1540
1477 1479 1482 1485 1487 1488 1491 1494 1494 1495 1497 1499 1500 1501 1504 1506 1507 1510 1517 1518 1521 1525 1530 1535 1536 1540 1542 1538 1534 1521 1532 1531 1535 1539 1536 1529 1528 1531 1533 1534 1537 1537 1540 1539
1476 1479 1482 1484 1486 1489 1491 1492 1494 1495 1497 1501 1502 1503 1505 1506 1507 1509 1514 1517 1518 1520 1522 1531 1536 1543 1536 1542 1532 1524 1521 1521 1525 1527 1524 1524 1526 1529 1528 1532 1534 1534 1535 1535
1475 1478 1481 1484 1486 1488 1491 1492 1493 1496 1498 1499 1502 1502 1504 1505 1507 1509 1511 1513 1516 1518 1521 1525 1531 1535 1526 1530 1525 1522 1522 1520 1519 1519 1519 1520 1522 1525 1527 1528 1531 1531 1532 1532
1474 1477 1480 1483 1485 1487 1489 1491 1493 1495 1499 1500 1501 1501 1501 1504 1506 1508 1509 1512 1514 1517 1520 1523 1526 1523 1523 1521 1525 1521 1518 1516 1519 1518 1515 1518 1521 1524 1524 1525 1527 1529 1529 1530
1473 1476 1480 1482 1484 1486 1489 1493 1493 1494 1496 1499 1502 1501 1501 1502 1505 1508 1509 1511 1513 1514 1516 1518 1517 1516 1519 1523 1521 1512 1511 1512 1513 1514 1515 1518 1520 1522 1522 1524 1525 1526 1527 1528
1473 1476 1478 1481 1483 1485 1488 1491 1491 1492 1496 1498 1500 1499 1500 1501 1504 1507 1509 1510 1511 1512 1513 1513 1515 1513 1515 1518 1515 1508 1508 1509 1510 1512 1514 1517 1519 1520 1520 1521 1523 1524 1525 1525
1472 1475 1478 1480 1481 1485 1488 1489 1490 1491 1495 1496 1497 1499 1501 1500 1502 1505 1507 1507 1509 1509 1509 1510 1512 1511 1511 1507 1501 1501 1502 1504 1505 1509 1512 1515 1516 1517 1519 1520 1521 1522 1523 1522
1471 1475 1477 1480 1481 1484 1486 1488 1490 1491 1495 1491 1493 1496 1499 1498 1500 1503 1506 1508 1510 1510 1507 1508 1509 1506 1502 1494 1496 1496 1496 1498 1503 1508 1511 1513 1515 1516 1517 1519 1520 1520 1520 1519
1470 1474 1476 1477 1477 1483 1485 1488 1490 1490 1488 1488 1488 1489 1492 1496 1501 1503 1508 1508 1508 1507 1506 1506 1504 1493 1490 1491 1492 1493 1493 1498 1502 1505 1508 1511 1514 1516 1517 1518 1518 1517 1515 1513
1465 1468 1471 1472 1475 1481 1484 1484 1487 1486 1483 1480 1480 1484 1488 1493 1497 1501 1503 1505 1505 1503 1500 1503 1497 1488 1483 1483 1489 1492 1494 1497 1500 1504 1507 1510 1513 1514 1515 1515 1514 1512 1511 1509
1463 1465 1469 1472 1472 1474 1476 1478 1479 1478 1473 1473 1474 1478 1482 1488 1492 1495 1501 1502 1504 1496 1500 1501 1488 1479 1478 1481 1488 1493 1496 1498 1502 1506 1509 1511 1512 1512 1511 1510 1509 1508 1506 1504
1464 1466 1468 1470 1473 1473 1471 1470 1471 1471 1470 1471 1473 1477 1481 1486 1489 1493 1496 1496 1494 1496 1495 1489 1482 1481 1482 1486 1491 1495 1497 1498 1502 1506 1508 1509 1509 1509 1508 1506 1504 1503 1501 1499
1468 1471 1472 1473 1472 1474 1474 1476 1475 1474 1472 1472 1473 1477 1480 1483 1486 1490 1489 1493 1493 1490 1487 1484 1484 1484 1486 1490 1493 1496 1498 1500 1502 1503 1504 1505 1505 1504 1503 1501 1500 1498 1496 1494
1471 1473 1473 1475 1477 1477 1476 1475 1476 1475 1474 1475 1476 1477 1480 1483 1486 1487 1489 1491 1485 1484 1483 1488 1487 1488 1490 1492 1494 1497 1498 1499 1500 1501 1501 1501 1500 1499 1497 1496 1495 1493 1490 1488
1474 1475 1476 1477 1477 1477 1477 1477 1477 1477 1475 1476 1478 1479 1480 1482 1484 1484 1483 1483 1481 1484 1488 1490 1490 1492 1493 1495 1496 1497 1498 1498 1498 1498 1498 1496 1495 1493 1492 1490 1489 1487 1485 1482
1475 1475 1475 1477 1477 1478 1479 1479 1479 1478 1479 1481 1481 1480 1485 1487 1484 1483 1485 1485 1488 1490 1491 1491 1492 1493 1495 1496 1496 1496 1495 1495 1495 1494 1493 1491 1490 1488 1487 1484 1482 1481 1479 1477